Location: ??????
(38.0131°N, 23.7723°E)
Time: 16:39:10
(UTC+00:00)

METEOR 2-5 DEB - Pass Details

Date: 18 August 2022
Orbit: 809 x 849 km, 81.2° (Epoch: 29 September)

Event Time Altitude Azimuth Distance (km) Brightness Sun altitude
Rises 20:23:04 0° 331° (NNW) 3,344 ? -31.2°
Reaches altitude 10° 20:26:21 10° 311° (NW) 2,402 ? -31.6°
Maximum altitude 20:29:31 16° 274° (W) 2,005 ? -31.9°
Enters shadow 20:31:46 13° 247° (WSW) 2,205 ? -32.2°
